Weather Roundup
Issued by NWS Corpus Christi, TX

Home | Current Version | Previous Version | Text Only | Print | Product List | Glossary On
Versions: 1 2 3 4 5 6 7 8 9 10 11 12 13 14 15 16 17 18 19 20 21 22 23 24 25 26 27 28 29 30 31 32 33 34 35 36 37 38 39 40 41 42 43 44 45 46 47 48 49 50
000
ASUS44 KCRP 311110
HRRCRP

SOUTH TEXAS REGIONAL WEATHER ROUNDUP
NATIONAL WEATHER SERVICE CORPUS CHRISTI TX
600 AM CDT FRI JUL 31 2015


TXZ229>244-311200-
...CORPUS CHRISTI AREA OBSERVATIONS...

CITY           SKY/WX    TMP DP  RH WIND       PRES   REMARKS
CORPUS CHRISTI MOCLDY    76  72  87 SW3       29.98F
NAS CORPUS CHR MOCLDY    78  76  93 SW7       29.97F
ROCKPORT       MOCLDY    80  75  84 W3        29.98F
KINGSVILLE NAS CLEAR     75  75 100 S3        29.98F
ALICE          CLEAR     75  73  93 CALM      29.98F
FALFURRIAS     CLEAR     74  72  93 S3        29.98F
$$

...VICTORIA AREA OBSERVATIONS...

CITY           SKY/WX    TMP DP  RH WIND       PRES   REMARKS
VICTORIA       PTCLDY    76  75  97 N5        30.00S
BEEVILLE       FAIR      77  76  97 W3        30.01R
PLEASANTON     PTCLDY    74  66  75 CALM      30.03R
SAN ANTONIO    MOCLDY    83  64  52 W5        30.04S
$$

...LAREDO AREA OBSERVATIONS...

CITY           SKY/WX    TMP DP  RH WIND       PRES   REMARKS
LAREDO         CLEAR     80  72  76 CALM      30.02S
COTULLA        CLEAR     78  68  71 CALM      30.01S
DEL RIO        CLEAR     77  62  59 E5        30.03S
MCALLEN        CLEAR     78  74  87 E3        30.00S
HEBBRONVILLE     N/A     73  71  92 SW3       30.02F
$$

...OTHER TEXAS OBSERVATIONS...

CITY           SKY/WX    TMP DP  RH WIND       PRES   REMARKS
BROWNSVILLE    PTCLDY    75  75 100 CALM      29.99S
HOUSTON        MOCLDY    80  76  87 N5        29.99R
COL. STATION   MOCLDY    79  74  84 E3        30.02S
AUSTIN         MOCLDY    78  71  79 W5        30.01F
WACO           CLEAR     77  70  79 NE5       30.04S
FORT WORTH     PTCLDY    82  71  69 E7        30.05S
WICHITA FALLS  PTCLDY    75  71  87 E5        30.09R
LUBBOCK        MOCLDY    73  69  87 E7        30.20S
EL PASO        CLOUDY    74  67  78 CALM      30.22S
$$

...MARINE OBSERVATIONS...

STATION/POSITION TIME  SKY/WX   TEMP    WIND        PRES    VSBY  WAVE   SWELL
                                AIR SEA DIR/SP/G                  HT/PER HT/PER
                 (UTC)          (F)     (DEG/KT/KT) (MB)    (MI)  (FT/S) (FT/S)
PORT ARANSAS     1100            80 84  230/  4/  5 1016.0R
BUOY 90 E PORT A 1050            85 86  290/  8/ 10 1015.3R         1/ 9   2/ 9
BUOY 45 SE BAFFI 1050            82 86  240/ 12/ 14 1014.5F         1/ 6
BUOY 200 E PT IS 1050            85 86  280/ 12/ 14 1014.5R         1/ 6
BUOY 15 E GALVES 1050            86 86  300/  8/ 10 1014.8R         2/ 6   2/ 6
$$



USA.gov is the U.S. government's official web portal to all federal, state and local government web resources and services.